,,Stat6,,Stat2,,Stat8,,Stat9,,Stat10,,Wind1,,Wind1,
time,status,PA1M_AVG,status,PR1M_SUM,status,RH1M_AVG,status,SR1M_AVG,status,TA1M_AVG,status,W1dAve1m,status,W1sAve1m,
2008-11-27, 00:00:00,VALID,918.408,VALID,0,VALID,100,VALID,-0.0849042,VALID,19.3911,VALID,18,VALID,0.00223214,
2008-11-27, 00:01:00,VALID,918.388,VALID,0,VALID,100,VALID,-0.0849042,VALID,19.3851,VALID,21,VALID,0.220203,
2008-11-27, 00:02:00,VALID,918.391,VALID,0,VALID,100,VALID,-0.101885,VALID,19.3784,VALID,10,VALID,0.00230824,
2008-11-27, 00:03:00,VALID,918.402,VALID,0,VALID,100,VALID,-0.101885,VALID,19.3816,VALID,350,VALID,0,
2008-11-27, 00:04:00,VALID,918.39,VALID,0,VALID,100,VALID,-0.0849042,VALID,19.3786,VALID,16,VALID,0,
2008-11-27, 00:05:00,VALID,918.385,VALID,0,VALID,100,VALID,-0.0849042,VALID,19.3751,VALID,21,VALID,0.0204613,
2008-11-27, 00:06:00,VALID,918.386,VALID,0,VALID,100,VALID,-0.0679233,VALID,19.3814,VALID,15,VALID,0.00605469,
2008-11-27, 00:07:00,VALID,918.393,VALID,0,VALID,100,VALID,-0.101885,VALID,19.3814,VALID,16,VALID,0.000186012,
2008-11-27, 00:08:00,VALID,918.406,VALID,0,VALID,100,VALID,-0.0849042,VALID,19.3784,VALID,29,VALID,0.0394345,
2008-11-27, 00:09:00,VALID,918.403,VALID,0,VALID,100,VALID,-0.101885,VALID,19.3883,VALID,27,VALID,0,
2008-11-27, 00:10:00,VALID,918.416,VALID,0,VALID,100,VALID,-0.101885,VALID,19.3983,VALID,25,VALID,0.00111607,
2008-11-27, 00:11:00,VALID,918.4,VALID,0,VALID,100,VALID,-0.0849042,VALID,19.3948,VALID,19,VALID,0,
2008-11-27, 00:12:00,VALID,918.404,VALID,0,VALID,100,VALID,-0.101885,VALID,19.3981,VALID,21,VALID,0,
2008-11-27, 00:13:00,VALID,918.403,VALID,0,VALID,100,VALID,-0.101885,VALID,19.3881,VALID,21,VALID,0,
2008-11-27, 00:14:00,VALID,918.405,VALID,0,VALID,100,VALID,-0.101885,VALID,19.3951,VALID,17,VALID,0,
2008-11-27, 00:15:00,VALID,918.401,VALID,0,VALID,100,VALID,-0.101885,VALID,19.3881,VALID,15,VALID,0,
2008-11-27, 00:16:00,VALID,918.384,VALID,0,VALID,100,VALID,-0.0679233,VALID,19.3746,VALID,17,VALID,0,
2008-11-27, 00:17:00,VALID,918.398,VALID,0,VALID,100,VALID,-0.0509425,VALID,19.3951,VALID,9,VALID,0.0908918,
2008-11-27, 00:18:00,VALID,918.39,VALID,0,VALID,100,VALID,-0.0849042,VALID,19.3911,VALID,2,VALID,0,
2008-11-27, 00:19:00,VALID,918.368,VALID,0,VALID,100,VALID,-0.101885,VALID,19.4041,VALID,11,VALID,0,
2008-11-27, 00:20:00,VALID,918.36,VALID,0,VALID,100,VALID,-0.0849042,VALID,19.4041,VALID,12,VALID,0,
2008-11-27, 00:21:00,VALID,918.349,VALID,0,VALID,100,VALID,-0.0509425,VALID,19.4008,VALID,9,VALID,0,
2008-11-27, 00:22:00,VALID,918.334,VALID,0,VALID,100,VALID,-0.0169808,VALID,19.4103,VALID,14,VALID,0,
2008-11-27, 00:23:00,VALID,918.334,VALID,0,VALID,100,VALID,-0.0169808,VALID,19.4135,VALID,19,VALID,0,
2008-11-27, 00:24:00,VALID,918.323,VALID,0,VALID,100,VALID,-0.0679233,VALID,19.4001,VALID,24,VALID,0,
2008-11-27, 00:25:00,VALID,918.311,VALID,0,VALID,100,VALID,-0.0169808,VALID,19.3908,VALID,21,VALID,0,
2008-11-27, 00:26:00,VALID,918.313,VALID,0,VALID,100,VALID,-0.0169808,VALID,19.3809,VALID,21,VALID,0,
2008-11-27, 00:27:00,VALID,918.321,VALID,0,VALID,100,VALID,-0.0849042,VALID,19.3746,VALID,19,VALID,0,
2008-11-27, 00:28:00,VALID,918.314,VALID,0,VALID,100,VALID,0,VALID,19.3676,VALID,10,VALID,0,
2008-11-27, 00:29:00,VALID,918.292,VALID,0,VALID,100,VALID,-0.0169808,VALID,19.3612,VALID,1,VALID,0.0427827,
2008-11-27, 00:30:00,VALID,918.277,VALID,0,VALID,100,VALID,0,VALID,19.3814,VALID,9,VALID,0,
2008-11-27, 00:31:00,VALID,918.275,VALID,0,VALID,100,VALID,-0.0509425,VALID,19.3744,VALID,9,VALID,0,
2008-11-27, 00:32:00,VALID,918.249,VALID,0,VALID,100,VALID,-0.0169808,VALID,19.3616,VALID,5,VALID,0.199826,
2008-11-27, 00:33:00,VALID,918.256,VALID,0,VALID,100,VALID,-0.0169808,VALID,19.3614,VALID,20,VALID,0.200586,
2008-11-27, 00:34:00,VALID,918.254,VALID,0,VALID,100,VALID,-0.0169808,VALID,19.3579,VALID,19,VALID,0,
2008-11-27, 00:35:00,VALID,918.242,VALID,0,VALID,100,VALID,-0.0169808,VALID,19.3716,VALID,37,VALID,0,
2008-11-27, 00:36:00,VALID,918.243,VALID,0,VALID,100,VALID,0,VALID,19.3746,VALID,34,VALID,0,
2008-11-27, 00:37:00,VALID,918.213,VALID,0,VALID,100,VALID,-0.0169808,VALID,19.3681,VALID,26,VALID,0,
2008-11-27, 00:38:00,VALID,918.229,VALID,0,VALID,100,VALID,0,VALID,19.3514,VALID,356,VALID,0,
2008-11-27, 00:39:00,VALID,918.207,VALID,0,VALID,100,VALID,0,VALID,19.3449,VALID,26,VALID,0,
2008-11-27, 00:40:00,VALID,918.222,VALID,0,VALID,100,VALID,0.0169808,VALID,19.3519,VALID,21,VALID,0.0289418,
2008-11-27, 00:41:00,VALID,918.23,VALID,0,VALID,100,VALID,0,VALID,19.3482,VALID,25,VALID,0,
2008-11-27, 00:42:00,VALID,918.216,VALID,0,VALID,100,VALID,-0.0169808,VALID,19.3484,VALID,20,VALID,0,
2008-11-27, 00:43:00,VALID,918.211,VALID,0,VALID,100,VALID,-0.0509425,VALID,19.3584,VALID,23,VALID,0.00145349,
2008-11-27, 00:44:00,VALID,918.223,VALID,0,VALID,100,VALID,-0.0169808,VALID,19.3449,VALID,10,VALID,0,
2008-11-27, 00:45:00,VALID,918.204,VALID,0,VALID,100,VALID,0,VALID,19.3449,VALID,6,VALID,0.0012718,
2008-11-27, 00:46:00,VALID,918.199,VALID,0,VALID,100,VALID,0,VALID,19.3484,VALID,14,VALID,0.00109012,
2008-11-27, 00:47:00,VALID,918.199,VALID,0,VALID,100,VALID,0.0169808,VALID,19.3582,VALID,7,VALID,0.0375,
2008-11-27, 00:48:00,VALID,918.185,VALID,0,VALID,100,VALID,-0.0169808,VALID,19.3547,VALID,20,VALID,0.107329,
2008-11-27, 00:49:00,VALID,918.187,VALID,0,VALID,100,VALID,-0.0169808,VALID,19.3484,VALID,25,VALID,0.0207031,
2008-11-27, 00:50:00,VALID,918.169,VALID,0,VALID,100,VALID,0,VALID,19.3519,VALID,11,VALID,0,
2008-11-27, 00:51:00,VALID,918.16,VALID,0,VALID,100,VALID,-0.0169808,VALID,19.3517,VALID,28,VALID,0.0857639,
2008-11-27, 00:52:00,VALID,918.154,VALID,0,VALID,100,VALID,0,VALID,19.3582,VALID,25,VALID,0.0772372,
2008-11-27, 00:53:00,VALID,918.143,VALID,0,VALID,100,VALID,0.0169808,VALID,19.3517,VALID,23,VALID,0,
2008-11-27, 00:54:00,VALID,918.143,VALID,0,VALID,100,VALID,0,VALID,19.3547,VALID,23,VALID,0,
2008-11-27, 00:55:00,VALID,918.123,VALID,0,VALID,100,VALID,-0.0339617,VALID,19.332,VALID,24,VALID,0,
2008-11-27, 00:56:00,VALID,918.112,VALID,0,VALID,100,VALID,0.0169808,VALID,19.325,VALID,17,VALID,0.380766,
2008-11-27, 00:57:00,VALID,918.11,VALID,0,VALID,100,VALID,0,VALID,19.3255,VALID,19,VALID,0,
2008-11-27, 00:58:00,VALID,918.1,VALID,0,VALID,100,VALID,0,VALID,19.3152,VALID,20,VALID,0.160792,
2008-11-27, 00:59:00,VALID,918.083,VALID,0,VALID,100,VALID,0.0169808,VALID,19.322,VALID,17,VALID,0,
2008-11-27, 01:00:00,VALID,918.06,VALID,0,VALID,100,VALID,0,VALID,19.3287,VALID,29,VALID,0.0554888,
2008-11-27, 01:01:00,VALID,918.037,VALID,0,VALID,100,VALID,0,VALID,19.309,VALID,28,VALID,0,
2008-11-27, 01:02:00,VALID,918.03,VALID,0,VALID,100,VALID,-0.0169808,VALID,19.3025,VALID,26,VALID,0.0419207,
2008-11-27, 01:03:00,VALID,918.012,VALID,0,VALID,100,VALID,0,VALID,19.2965,VALID,30,VALID,0.0428819,
2008-11-27, 01:04:00,VALID,917.991,VALID,0,VALID,100,VALID,-0.0509425,VALID,19.2905,VALID,19,VALID,0.20277,
2008-11-27, 01:05:00,VALID,917.974,VALID,0,VALID,100,VALID,-0.0169808,VALID,19.2898,VALID,28,VALID,0.137821,
2008-11-27, 01:06:00,VALID,917.99,VALID,0,VALID,100,VALID,0,VALID,19.2835,VALID,10,VALID,0.256904,
2008-11-27, 01:07:00,VALID,918.013,VALID,0,VALID,100,VALID,-0.0339617,VALID,19.303,VALID,30,VALID,0,
2008-11-27, 01:08:00,VALID,917.997,VALID,0,VALID,100,VALID,0,VALID,19.3092,VALID,25,VALID,0.00111607,
2008-11-27, 01:09:00,VALID,918.004,VALID,0,VALID,100,VALID,-0.0169808,VALID,19.3157,VALID,26,VALID,0,
2008-11-27, 01:10:00,VALID,918.002,VALID,0,VALID,100,VALID,-0.0339617,VALID,19.2965,VALID,23,VALID,0.340021,
2008-11-27, 01:11:00,VALID,918.001,VALID,0,VALID,100,VALID,0.0169808,VALID,19.2963,VALID,23,VALID,0.00319602,
2008-11-27, 01:12:00,VALID,918.01,VALID,0,VALID,100,VALID,-0.0679233,VALID,19.31,VALID,14,VALID,0,
2008-11-27, 01:13:00,VALID,917.99,VALID,0,VALID,100,VALID,-0.0169808,VALID,19.3125,VALID,14,VALID,0,
2008-11-27, 01:14:00,VALID,917.981,VALID,0,VALID,100,VALID,-0.0169808,VALID,19.316,VALID,20,VALID,0,
2008-11-27, 01:15:00,VALID,917.974,VALID,0,VALID,100,VALID,-0.0169808,VALID,19.3132,VALID,20,VALID,0.0870536,
2008-11-27, 01:16:00,VALID,917.948,VALID,0,VALID,100,VALID,0,VALID,19.3032,VALID,38,VALID,0.164063,
2008-11-27, 01:17:00,VALID,917.954,VALID,0,VALID,100,VALID,0,VALID,19.303,VALID,17,VALID,0.00228659,
2008-11-27, 01:18:00,VALID,917.933,VALID,0,VALID,100,VALID,0,VALID,19.2761,VALID,30,VALID,0.463715,
2008-11-27, 01:19:00,VALID,917.929,VALID,0,VALID,100,VALID,-0.0169808,VALID,19.2998,VALID,37,VALID,0.147892,
2008-11-27, 01:20:00,VALID,917.927,VALID,0,VALID,100,VALID,-0.0169808,VALID,19.3122,VALID,35,VALID,0,
2008-11-27, 01:21:00,VALID,917.909,VALID,0,VALID,100,VALID,-0.0339617,VALID,19.3264,VALID,35,VALID,0.000710227,
2008-11-27, 01:22:00,VALID,917.896,VALID,0,VALID,100,VALID,-0.0679233,VALID,19.3102,VALID,10,VALID,0.000355114,
2008-11-27, 01:23:00,VALID,917.89,VALID,0,VALID,100,VALID,-0.0679233,VALID,19.294,VALID,14,VALID,0.258358,
2008-11-27, 01:24:00,VALID,917.883,VALID,0,VALID,100,VALID,-0.0169808,VALID,19.2905,VALID,21,VALID,0,
2008-11-27, 01:25:00,VALID,917.88,VALID,0,VALID,100,VALID,-0.0849042,VALID,19.2873,VALID,11,VALID,0.0482639,
2008-11-27, 01:26:00,VALID,917.882,VALID,0,VALID,100,VALID,-0.0339617,VALID,19.2775,VALID,31,VALID,0.226563,
2008-11-27, 01:27:00,VALID,917.878,VALID,0,VALID,100,VALID,-0.0339617,VALID,19.268,VALID,31,VALID,0,
2008-11-27, 01:28:00,VALID,917.888,VALID,0,VALID,100,VALID,-0.0509425,VALID,19.2581,VALID,36,VALID,0.172222,
2008-11-27, 01:29:00,VALID,917.864,VALID,0,VALID,100,VALID,-0.0849042,VALID,19.2548,VALID,37,VALID,0.2371,
2008-11-27, 01:30:00,VALID,917.857,VALID,0,VALID,100,VALID,-0.0509425,VALID,19.2481,VALID,58,VALID,0.00381541,
2008-11-27, 01:31:00,VALID,917.851,VALID,0,VALID,100,VALID,-0.0679233,VALID,19.2451,VALID,21,VALID,0.0755208,
2008-11-27, 01:32:00,VALID,917.847,VALID,0,VALID,100,VALID,-0.101885,VALID,19.2356,VALID,35,VALID,0,
2008-11-27, 01:33:00,VALID,917.842,VALID,0,VALID,100,VALID,-0.0849042,VALID,19.2191,VALID,24,VALID,0.784624,
2008-11-27, 01:34:00,VALID,917.829,VALID,0,VALID,100,VALID,-0.0509425,VALID,19.2161,VALID,27,VALID,1.1715,
2008-11-27, 01:35:00,VALID,917.836,VALID,0,VALID,100,VALID,-0.0509425,VALID,19.2059,VALID,27,VALID,0.516183,
2008-11-27, 01:36:00,VALID,917.799,VALID,0,VALID,100,VALID,-0.0339617,VALID,19.2127,VALID,20,VALID,0.744336,
2008-11-27, 01:37:00,VALID,917.791,VALID,0,VALID,100,VALID,-0.0509425,VALID,19.2097,VALID,28,VALID,0.522693,
2008-11-27, 01:38:00,VALID,917.762,VALID,0,VALID,100,VALID,-0.0339617,VALID,19.2099,VALID,26,VALID,0.827009,
2008-11-27, 01:39:00,VALID,917.757,VALID,0,VALID,100,VALID,-0.0849042,VALID,19.1899,VALID,28,VALID,1.26599,
2008-11-27, 01:40:00,VALID,917.751,VALID,0,VALID,100,VALID,-0.0509425,VALID,19.1967,VALID,22,VALID,0.109566,
2008-11-27, 01:41:00,VALID,917.758,VALID,0,VALID,100,VALID,-0.0679233,VALID,19.1932,VALID,31,VALID,0.031436,
2008-11-27, 01:42:00,VALID,917.749,VALID,0,VALID,100,VALID,-0.0169808,VALID,19.1765,VALID,30,VALID,0.210175,
2008-11-27, 01:43:00,VALID,917.737,VALID,0,VALID,100,VALID,-0.0169808,VALID,19.1732,VALID,26,VALID,0,
2008-11-27, 01:44:00,VALID,917.74,VALID,0,VALID,100,VALID,-0.0339617,VALID,19.1705,VALID,27,VALID,0.0495384,
2008-11-27, 01:45:00,VALID,917.738,VALID,0,VALID,100,VALID,-0.0509425,VALID,19.174,VALID,26,VALID,0.062128,
2008-11-27, 01:46:00,VALID,917.749,VALID,0,VALID,100,VALID,-0.0679233,VALID,19.1575,VALID,23,VALID,0.0492188,
2008-11-27, 01:47:00,VALID,917.729,VALID,0,VALID,100,VALID,-0.0169808,VALID,19.1543,VALID,26,VALID,0.0118056,
2008-11-27, 01:48:00,VALID,917.713,VALID,0,VALID,100,VALID,-0.0339617,VALID,19.1443,VALID,26,VALID,0.222202,
2008-11-27, 01:49:00,VALID,917.715,VALID,0,VALID,100,VALID,-0.0679233,VALID,19.1443,VALID,31,VALID,0.0896577,
2008-11-27, 01:50:00,VALID,917.714,VALID,0,VALID,100,VALID,-0.0509425,VALID,19.1376,VALID,22,VALID,0,
2008-11-27, 01:51:00,VALID,917.706,VALID,0,VALID,100,VALID,-0.0169808,VALID,19.1478,VALID,20,VALID,0.00104167,
2008-11-27, 01:52:00,VALID,917.698,VALID,0,VALID,100,VALID,-0.0679233,VALID,19.151,VALID,23,VALID,0.00109012,
2008-11-27, 01:53:00,VALID,917.668,VALID,0,VALID,100,VALID,-0.0509425,VALID,19.148,VALID,338,VALID,0,
2008-11-27, 01:54:00,VALID,917.65,VALID,0,VALID,100,VALID,-0.0679233,VALID,19.138,VALID,16,VALID,0,
2008-11-27, 01:55:00,VALID,917.652,VALID,0,VALID,100,VALID,-0.0679233,VALID,19.1413,VALID,15,VALID,0.00550426,
2008-11-27, 01:56:00,VALID,917.648,VALID,0,VALID,100,VALID,0,VALID,19.1448,VALID,28,VALID,0,
2008-11-27, 01:57:00,VALID,917.659,VALID,0,VALID,100,VALID,-0.0339617,VALID,19.1478,VALID,23,VALID,0,
2008-11-27, 01:58:00,VALID,917.648,VALID,0,VALID,100,VALID,-0.0339617,VALID,19.1543,VALID,25,VALID,0.00109012,
2008-11-27, 01:59:00,VALID,917.677,VALID,0,VALID,100,VALID,-0.0679233,VALID,19.151,VALID,23,VALID,0,
2008-11-27, 02:00:00,VALID,917.677,VALID,0,VALID,100,VALID,-0.0849042,VALID,19.1575,VALID,25,VALID,0.00138889,
2008-11-27, 02:01:00,VALID,917.663,VALID,0,VALID,100,VALID,-0.0679233,VALID,19.151,VALID,23,VALID,0.414663,
2008-11-27, 02:02:00,VALID,917.643,VALID,0,VALID,100,VALID,-0.0679233,VALID,19.1543,VALID,9,VALID,0.210379,
2008-11-27, 02:03:00,VALID,917.632,VALID,0,VALID,100,VALID,-0.0679233,VALID,19.1805,VALID,21,VALID,0,
2008-11-27, 02:04:00,VALID,917.617,VALID,0,VALID,100,VALID,-0.0849042,VALID,19.1904,VALID,4,VALID,0.0394259,
2008-11-27, 02:05:00,VALID,917.618,VALID,0,VALID,100,VALID,-0.0509425,VALID,19.1902,VALID,344,VALID,0,
2008-11-27, 02:06:00,VALID,917.61,VALID,0,VALID,100,VALID,-0.0679233,VALID,19.1999,VALID,344,VALID,0,
2008-11-27, 02:07:00,VALID,917.586,VALID,0,VALID,100,VALID,-0.0169808,VALID,19.2052,VALID,39,VALID,0,
2008-11-27, 02:08:00,VALID,917.569,VALID,0,VALID,100,VALID,0.0509425,VALID,19.1985,VALID,28,VALID,0,
2008-11-27, 02:09:00,VALID,917.548,VALID,0,VALID,100,VALID,0.0339617,VALID,19.1882,VALID,26,VALID,0.00106534,
2008-11-27, 02:10:00,VALID,917.557,VALID,0,VALID,100,VALID,0,VALID,19.195,VALID,14,VALID,0.115589,
2008-11-27, 02:11:00,VALID,917.538,VALID,0,VALID,100,VALID,0.0339617,VALID,19.1915,VALID,8,VALID,0.143169,
2008-11-27, 02:12:00,VALID,917.535,VALID,0,VALID,100,VALID,0.0339617,VALID,19.2077,VALID,25,VALID,0,
2008-11-27, 02:13:00,VALID,917.51,VALID,0,VALID,100,VALID,0.0339617,VALID,19.2209,VALID,22,VALID,0.0854167,
2008-11-27, 02:14:00,VALID,917.486,VALID,0,VALID,100,VALID,0.0339617,VALID,19.2349,VALID,19,VALID,0,
2008-11-27, 02:15:00,VALID,917.469,VALID,0,VALID,100,VALID,0.0339617,VALID,19.2341,VALID,5,VALID,0.0302973,
2008-11-27, 02:16:00,VALID,917.469,VALID,0,VALID,100,VALID,0.0169808,VALID,19.2506,VALID,12,VALID,0.00111607,
2008-11-27, 02:17:00,VALID,917.471,VALID,0,VALID,100,VALID,0,VALID,19.2474,VALID,10,VALID,0.0546875,
2008-11-27, 02:18:00,VALID,917.48,VALID,0,VALID,100,VALID,0.0169808,VALID,19.2444,VALID,3,VALID,0,
2008-11-27, 02:19:00,VALID,917.473,VALID,0,VALID,100,VALID,0.0169808,VALID,19.2444,VALID,356,VALID,0.159339,
2008-11-27, 02:20:00,VALID,917.452,VALID,0,VALID,100,VALID,0.0509425,VALID,19.2501,VALID,5,VALID,0.129084,
2008-11-27, 02:21:00,VALID,917.446,VALID,0,VALID,100,VALID,0,VALID,19.2501,VALID,12,VALID,0.0744792,
2008-11-27, 02:22:00,VALID,917.435,VALID,0,VALID,100,VALID,-0.0509425,VALID,19.2513,VALID,14,VALID,0.0292515,
2008-11-27, 02:23:00,VALID,917.441,VALID,0,VALID,100,VALID,-0.101885,VALID,19.2291,VALID,15,VALID,0.00590701,
2008-11-27, 02:24:00,VALID,917.412,VALID,0,VALID,100,VALID,-0.101885,VALID,19.2259,VALID,21,VALID,0.0670421,
2008-11-27, 02:25:00,VALID,917.397,VALID,0,VALID,100,VALID,-0.101885,VALID,19.2099,VALID,18,VALID,0,
2008-11-27, 02:26:00,VALID,917.392,VALID,0,VALID,100,VALID,-0.101885,VALID,19.2062,VALID,9,VALID,0,
2008-11-27, 02:27:00,VALID,917.401,VALID,0,VALID,100,VALID,-0.0509425,VALID,19.1867,VALID,15,VALID,0,
2008-11-27, 02:28:00,VALID,917.395,VALID,0,VALID,100,VALID,-0.101885,VALID,19.1837,VALID,16,VALID,0.0539253,
2008-11-27, 02:29:00,VALID,917.392,VALID,0,VALID,100,VALID,-0.0679233,VALID,19.1869,VALID,352,VALID,0,
2008-11-27, 02:30:00,VALID,917.39,VALID,0,VALID,100,VALID,-0.101885,VALID,19.1772,VALID,3,VALID,0,
2008-11-27, 02:31:00,VALID,917.374,VALID,0,VALID,100,VALID,-0.101885,VALID,19.1837,VALID,18,VALID,0,
2008-11-27, 02:32:00,VALID,917.375,VALID,0,VALID,100,VALID,-0.118866,VALID,19.1705,VALID,15,VALID,0,
2008-11-27, 02:33:00,VALID,917.368,VALID,0,VALID,100,VALID,-0.0849042,VALID,19.1705,VALID,5,VALID,0,
2008-11-27, 02:34:00,VALID,917.355,VALID,0,VALID,100,VALID,-0.0679233,VALID,19.1607,VALID,5,VALID,0,
2008-11-27, 02:35:00,VALID,917.322,VALID,0,VALID,100,VALID,-0.101885,VALID,19.1543,VALID,11,VALID,0,
2008-11-27, 02:36:00,VALID,917.288,VALID,0,VALID,100,VALID,-0.101885,VALID,19.148,VALID,25,VALID,0.110973,
2008-11-27, 02:37:00,VALID,917.292,VALID,0,VALID,100,VALID,-0.0849042,VALID,19.1191,VALID,16,VALID,0.00290698,
2008-11-27, 02:38:00,VALID,917.266,VALID,0,VALID,100,VALID,-0.101885,VALID,19.1028,VALID,15,VALID,0,
2008-11-27, 02:39:00,VALID,917.256,VALID,0,VALID,100,VALID,-0.118866,VALID,19.0796,VALID,15,VALID,0,
2008-11-27, 02:40:00,VALID,917.235,VALID,0,VALID,100,VALID,-0.101885,VALID,19.0502,VALID,18,VALID,0.0691692,
2008-11-27, 02:41:00,VALID,917.223,VALID,0,VALID,100,VALID,-0.0849042,VALID,19.028,VALID,26,VALID,0.0912064,
2008-11-27, 02:42:00,VALID,917.201,VALID,0,VALID,100,VALID,-0.101885,VALID,19.0215,VALID,25,VALID,0,
2008-11-27, 02:43:00,VALID,917.177,VALID,0,VALID,100,VALID,-0.101885,VALID,19.0215,VALID,26,VALID,0,
2008-11-27, 02:44:00,VALID,917.163,VALID,0,VALID,100,VALID,-0.101885,VALID,19.0083,VALID,25,VALID,0,
2008-11-27, 02:45:00,VALID,917.164,VALID,0,VALID,100,VALID,-0.101885,VALID,19.0215,VALID,31,VALID,0,
2008-11-27, 02:46:00,VALID,917.144,VALID,0,VALID,100,VALID,-0.0849042,VALID,19.0115,VALID,29,VALID,0,
2008-11-27, 02:47:00,VALID,917.144,VALID,0,VALID,100,VALID,-0.101885,VALID,19.018,VALID,23,VALID,0.0397569,
2008-11-27, 02:48:00,VALID,917.129,VALID,0,VALID,100,VALID,-0.118866,VALID,19.005,VALID,31,VALID,0.00133384,
2008-11-27, 02:49:00,VALID,917.125,VALID,0,VALID,100,VALID,-0.101885,VALID,18.9856,VALID,24,VALID,0,
2008-11-27, 02:50:00,VALID,917.112,VALID,0,VALID,100,VALID,-0.0849042,VALID,18.9721,VALID,17,VALID,0,
2008-11-27, 02:51:00,VALID,917.1,VALID,0,VALID,100,VALID,0.0169808,VALID,18.9547,VALID,17,VALID,0,
2008-11-27, 02:52:00,VALID,917.094,VALID,0,VALID,100,VALID,-0.0679233,VALID,18.9694,VALID,15,VALID,0,
2008-11-27, 02:53:00,VALID,917.092,VALID,0,VALID,100,VALID,-0.0849042,VALID,18.9462,VALID,28,VALID,0,
2008-11-27, 02:54:00,VALID,917.086,VALID,0,VALID,100,VALID,-0.0169808,VALID,18.9466,VALID,28,VALID,0,
2008-11-27, 02:55:00,VALID,917.073,VALID,0,VALID,100,VALID,-0.101885,VALID,18.9302,VALID,28,VALID,0,
2008-11-27, 02:56:00,VALID,917.07,VALID,0,VALID,100,VALID,-0.0849042,VALID,18.9369,VALID,28,VALID,0,
2008-11-27, 02:57:00,VALID,917.067,VALID,0,VALID,100,VALID,-0.0679233,VALID,18.9172,VALID,28,VALID,0,
2008-11-27, 02:58:00,VALID,917.051,VALID,0,VALID,100,VALID,-0.0849042,VALID,18.9042,VALID,28,VALID,0,
2008-11-27, 02:59:00,VALID,917.026,VALID,0,VALID,100,VALID,-0.101885,VALID,18.8818,VALID,28,VALID,0,
2008-11-27, 03:00:00,VALID,917.016,VALID,0,VALID,100,VALID,-0.0509425,VALID,18.8623,VALID,28,VALID,0,
2008-11-27, 03:01:00,VALID,916.997,VALID,0,VALID,100,VALID,-0.0849042,VALID,18.8426,VALID,28,VALID,0,
2008-11-27, 03:02:00,VALID,916.976,VALID,0,VALID,100,VALID,-0.0849042,VALID,18.8266,VALID,28,VALID,0,
2008-11-27, 03:03:00,VALID,916.955,VALID,0,VALID,100,VALID,-0.0509425,VALID,18.8201,VALID,28,VALID,0,
2008-11-27, 03:04:00,VALID,916.928,VALID,0,VALID,100,VALID,-0.0169808,VALID,18.8164,VALID,28,VALID,0,
2008-11-27, 03:05:00,VALID,916.92,VALID,0,VALID,100,VALID,-0.0679233,VALID,18.8039,VALID,28,VALID,0,
2008-11-27, 03:06:00,VALID,916.927,VALID,0,VALID,100,VALID,-0.0339617,VALID,18.784,VALID,28,VALID,0,
2008-11-27, 03:07:00,VALID,916.921,VALID,0,VALID,100,VALID,-0.0509425,VALID,18.7812,VALID,28,VALID,0,
2008-11-27, 03:08:00,VALID,916.906,VALID,0,VALID,100,VALID,-0.0679233,VALID,18.7745,VALID,28,VALID,0,
2008-11-27, 03:09:00,VALID,916.888,VALID,0,VALID,100,VALID,-0.0679233,VALID,18.7455,VALID,28,VALID,0,
2008-11-27, 03:10:00,VALID,916.893,VALID,0,VALID,100,VALID,-0.0509425,VALID,18.7518,VALID,28,VALID,0,
2008-11-27, 03:11:00,VALID,916.886,VALID,0,VALID,100,VALID,-0.0679233,VALID,18.7323,VALID,28,VALID,0,
2008-11-27, 03:12:00,VALID,916.879,VALID,0,VALID,100,VALID,-0.101885,VALID,18.7293,VALID,28,VALID,0,
2008-11-27, 03:13:00,VALID,916.833,VALID,0,VALID,100,VALID,-0.0849042,VALID,18.7031,VALID,28,VALID,0,
2008-11-27, 03:14:00,VALID,916.797,VALID,0,VALID,100,VALID,-0.0849042,VALID,18.6966,VALID,28,VALID,0,
2008-11-27, 03:15:00,VALID,916.773,VALID,0,VALID,100,VALID,-0.0849042,VALID,18.7293,VALID,28,VALID,0,
2008-11-27, 03:16:00,VALID,916.733,VALID,0,VALID,100,VALID,-0.0849042,VALID,18.7099,VALID,28,VALID,0,
2008-11-27, 03:17:00,VALID,916.717,VALID,0,VALID,100,VALID,-0.0849042,VALID,18.7161,VALID,28,VALID,0,
2008-11-27, 03:18:00,VALID,916.693,VALID,0,VALID,100,VALID,-0.0679233,VALID,18.7288,VALID,28,VALID,0,
2008-11-27, 03:19:00,VALID,916.68,VALID,0,VALID,100,VALID,-0.101885,VALID,18.7453,VALID,33,VALID,0,
2008-11-27, 03:20:00,VALID,916.667,VALID,0,VALID,100,VALID,-0.0339617,VALID,18.7191,VALID,38,VALID,0,
2008-11-27, 03:21:00,VALID,916.652,VALID,0,VALID,100,VALID,-0.0679233,VALID,18.7685,VALID,36,VALID,0,
2008-11-27, 03:22:00,VALID,916.636,VALID,0,VALID,100,VALID,-0.0169808,VALID,18.7673,VALID,40,VALID,0,
2008-11-27, 03:23:00,VALID,916.612,VALID,0,VALID,100,VALID,0,VALID,18.7765,VALID,40,VALID,0,
2008-11-27, 03:24:00,VALID,916.582,VALID,0,VALID,100,VALID,0.0169808,VALID,18.783,VALID,52,VALID,0,
2008-11-27, 03:25:00,VALID,916.567,VALID,0,VALID,100,VALID,0,VALID,18.8185,VALID,70,VALID,0,
2008-11-27, 03:26:00,VALID,916.584,VALID,0,VALID,100,VALID,0.0339617,VALID,18.8187,VALID,70,VALID,0,
2008-11-27, 03:27:00,VALID,916.582,VALID,0,VALID,100,VALID,0,VALID,18.8025,VALID,70,VALID,0,
2008-11-27, 03:28:00,VALID,916.568,VALID,0,VALID,100,VALID,0.0339617,VALID,18.7763,VALID,70,VALID,0,
2008-11-27, 03:29:00,VALID,916.517,VALID,0,VALID,100,VALID,0,VALID,18.783,VALID,70,VALID,0,
2008-11-27, 03:30:00,VALID,916.512,VALID,0,VALID,100,VALID,0.0169808,VALID,18.7638,VALID,67,VALID,0,
2008-11-27, 03:31:00,VALID,916.505,VALID,0,VALID,100,VALID,0.0339617,VALID,18.7376,VALID,67,VALID,0,
2008-11-27, 03:32:00,VALID,916.488,VALID,0,VALID,100,VALID,0.0169808,VALID,18.6917,VALID,67,VALID,0,
2008-11-27, 03:33:00,VALID,916.453,VALID,0,VALID,100,VALID,0.0679233,VALID,18.6628,VALID,67,VALID,0,
2008-11-27, 03:34:00,VALID,916.429,VALID,0,VALID,100,VALID,0.0509425,VALID,18.6758,VALID,67,VALID,0,
2008-11-27, 03:35:00,VALID,916.413,VALID,0,VALID,100,VALID,0.0339617,VALID,18.676,VALID,82,VALID,0,
2008-11-27, 03:36:00,VALID,916.407,VALID,0,VALID,100,VALID,0.0679233,VALID,18.6461,VALID,120,VALID,0,
2008-11-27, 03:37:00,VALID,916.424,VALID,0,VALID,100,VALID,0,VALID,18.6213,VALID,120,VALID,0,
2008-11-27, 03:38:00,VALID,916.441,VALID,0,VALID,100,VALID,-0.0509425,VALID,18.5729,VALID,120,VALID,0,
2008-11-27, 03:39:00,VALID,916.441,VALID,0,VALID,100,VALID,-0.0849042,VALID,18.4819,VALID,120,VALID,0,
2008-11-27, 03:40:00,VALID,916.425,VALID,0,VALID,100,VALID,-0.0849042,VALID,18.4793,VALID,120,VALID,0,
2008-11-27, 03:41:00,VALID,916.418,VALID,0,VALID,100,VALID,-0.0679233,VALID,18.5505,VALID,120,VALID,0,
2008-11-27, 03:42:00,VALID,916.434,VALID,0,VALID,100,VALID,-0.0849042,VALID,18.5574,VALID,120,VALID,0,
2008-11-27, 03:43:00,VALID,916.44,VALID,0,VALID,100,VALID,-0.0849042,VALID,18.512,VALID,120,VALID,0,
2008-11-27, 03:44:00,VALID,916.431,VALID,0,VALID,100,VALID,-0.0339617,VALID,18.4631,VALID,120,VALID,0,
2008-11-27, 03:45:00,VALID,916.425,VALID,0,VALID,100,VALID,-0.0679233,VALID,18.401,VALID,120,VALID,0,
2008-11-27, 03:46:00,VALID,916.407,VALID,0,VALID,100,VALID,-0.0679233,VALID,18.3457,VALID,120,VALID,0,
2008-11-27, 03:47:00,VALID,916.392,VALID,0,VALID,100,VALID,-0.0339617,VALID,18.3007,VALID,120,VALID,0,